Wind_Speed
1 3 6 10 8 3 3 3 4 1 5 3 6 4 8 14 15 17 25 13 11 26 30 34 31 29 27 24 21 17 21 19 19 23 24 23 19 18 16 13 12 9 9 13
4 7 11 4 5 5 2 5 3 2 6 4 7 8 7 9 12 24 27 22 18 20 26 35 34 34 29 29 22 20 21 20 21 22 25 20 20 20 16 13 12 10 9 8
7 8 7 6 8 4 4 8 7 6 6 2 1 5 5 5 18 24 24 26 30 24 28 35 38 38 32 34 28 23 23 21 19 25 21 19 20 21 18 18 14 10 9 7
6 6 7 6 7 7 7 13 13 10 7 3 4 4 5 6 7 12 25 26 34 34 23 39 43 41 38 35 30 23 23 24 22 21 22 24 23 20 17 18 15 13 11 8
8 3 5 6 11 8 12 13 15 12 7 4 2 2 5 5 8 12 18 28 33 43 28 33 44 42 39 36 34 27 23 27 26 22 25 26 24 21 16 17 16 14 14 10
7 4 5 8 6 9 2 6 7 5 3 2 5 7 5 6 9 7 20 24 31 36 34 30 38 41 42 41 37 32 27 26 29 25 24 23 27 24 20 20 19 18 16 12
3 7 4 6 4 1 6 6 2 1 1 6 4 5 10 4 7 9 21 33 35 37 35 32 34 41 43 42 41 33 29 27 28 27 26 25 29 28 26 20 20 20 19 16
4 5 6 4 8 8 5 8 6 6 3 4 6 5 7 4 8 21 23 32 31 32 37 37 38 41 42 43 41 37 33 33 30 31 28 27 28 31 32 27 22 24 24 20
5 6 4 6 7 11 5 3 5 8 4 3 3 7 10 4 2 9 15 16 26 34 32 37 40 37 42 43 42 39 41 35 33 30 29 29 29 35 35 32 27 26 24 24
5 3 5 2 4 4 9 9 3 3 4 4 5 5 7 6 3 6 8 14 21 26 29 30 37 36 40 44 41 37 39 38 37 32 32 30 31 33 37 34 32 31 29 24
5 4 9 3 3 8 2 2 5 6 5 6 3 6 8 11 7 9 9 17 17 20 29 32 32 31 31 42 41 39 39 39 39 34 33 33 34 35 35 38 37 35 32 29
9 6 6 11 4 1 6 7 7 5 5 2 5 6 4 6 8 10 14 15 13 13 17 28 32 31 32 36 37 35 37 36 34 38 37 34 36 34 34 38 39 36 35 33
6 3 2 9 6 3 4 5 6 5 3 5 6 6 4 2 5 12 15 17 15 10 11 19 28 31 29 31 32 32 33 35 34 36 35 32 37 38 34 34 36 38 37 36
9 5 8 12 9 5 5 6 3 7 4 6 6 4 5 6 7 9 18 19 13 9 12 15 18 18 18 20 24 24 27 28 30 36 36 37 36 37 37 32 32 35 37 38
3 5 6 5 7 5 6 7 7 5 6 6 5 7 8 10 10 13 18 15 19 21 21 17 16 15 13 13 14 17 21 27 31 33 34 38 40 36 33 30 24 29 31 30
6 2 3 4 5 7 5 8 9 4 4 1 2 5 6 10 9 11 22 21 25 29 26 22 18 13 10 11 14 18 21 24 28 30 34 33 33 33 32 31 31 28 30 25
3 1 2 4 4 5 3 8 9 6 5 7 6 9 4 5 8 22 27 28 31 34 27 22 11 7 7 8 11 14 16 19 21 23 26 27 32 34 35 35 35 32 31 32
2 1 2 3 0 5 7 4 4 7 8 8 4 5 7 12 32 24 31 36 35 32 28 19 17 9 6 6 5 4 5 5 8 12 16 21 21 26 30 33 34 28 32 33
7 4 2 3 3 5 2 3 6 7 9 8 8 8 12 17 13 13 30 38 40 35 28 24 17 9 13 10 7 5 4 2 1 2 5 10 14 16 19 20 23 28 29 33
4 3 4 2 4 7 7 5 9 2 3 4 9 7 7 20 8 10 39 38 35 33 28 22 18 15 15 12 10 9 9 8 8 7 5 2 2 6 6 10 11 18 24 27
1 1 6 4 4 6 3 10 9 7 5 21 16 6 22 8 18 37 37 38 36 30 26 24 22 20 16 14 12 9 6 4 3 2 3 4 4 5 3 6 10 12 9 12
4 4 3 2 2 5 9 6 3 2 10 10 17 17 10 23 29 20 28 39 38 32 30 29 26 22 19 15 13 10 7 5 4 2 1 1 1 2 3 3 4 10 12 12
2 4 3 7 4 4 6 3 3 8 11 15 18 22 21 22 29 27 31 40 41 36 34 32 27 23 20 17 13 11 8 6 5 3 5 4 4 3 2 3 3 3 7 11
3 3 1 3 3 6 17 8 9 11 13 20 19 20 13 21 28 33 36 43 39 35 37 33 28 24 21 17 14 11 8 6 5 7 9 6 5 4 5 5 4 4 4 6
5 2 1 4 5 9 2 7 16 15 15 16 19 17 14 12 26 35 39 41 39 38 36 32 27 24 18 15 14 13 13 13 9 9 9 7 6 5 5 5 5 4 4 3
6 6 4 5 7 4 11 13 17 22 20 16 18 20 11 10 22 33 41 40 38 37 33 29 25 20 18 15 11 11 14 14 9 8 6 8 8 5 4 4 3 5 5 5
Wind_Direction
92 96 206 213 209 181 201 195 203 261 180 171 199 201 222 197 201 191 205 228 199 199 206 210 211 204 205 195 186 179 173 184 182 185 183 191 196 203 206 201 201 198 171 208
30 225 232 226 210 204 254 184 159 356 169 228 205 210 213 188 216 201 203 211 197 194 204 209 206 206 208 198 190 191 187 186 191 191 187 199 201 214 223 205 183 175 188 193
167 231 158 188 261 231 195 178 187 180 203 260 93 308 202 200 211 221 222 215 204 202 206 209 208 208 210 206 198 200 198 199 193 195 204 218 206 205 216 208 195 184 197 211
220 253 206 203 244 167 270 195 194 162 141 224 156 257 264 197 222 209 212 208 211 214 218 215 210 211 213 210 208 210 207 205 199 196 201 195 201 208 214 208 211 208 205 216
241 210 177 198 233 147 235 153 182 174 152 106 246 347 258 150 234 223 220 209 215 216 223 218 213 215 216 214 213 213 217 212 205 200 202 212 216 219 219 210 207 205 204 218
232 270 161 217 247 181 255 89 54 63 80 350 213 181 272 190 206 207 221 219 216 220 222 218 218 218 217 217 215 217 213 216 212 210 213 219 220 226 220 215 212 211 214 219
287 252 214 192 266 298 76 73 1 1 110 216 123 154 242 234 205 197 202 208 215 221 221 216 215 215 217 216 216 217 224 218 221 219 221 223 221 224 223 225 223 221 222 225
186 316 178 178 185 191 182 150 152 205 186 242 119 245 252 230 223 211 212 207 206 213 220 225 220 219 218 219 221 215 228 225 221 223 226 228 225 223 223 228 231 230 230 232
159 271 256 184 196 153 190 152 186 101 5 67 253 293 310 237 108 139 190 203 195 205 210 214 217 225 220 222 221 219 225 228 227 227 229 229 229 225 225 230 232 231 235 237
214 291 213 243 142 77 157 154 76 13 139 225 285 285 244 275 201 160 167 178 189 201 200 209 217 224 226 226 228 224 230 233 232 236 233 237 232 230 229 231 233 236 239 241
147 142 259 56 198 183 116 170 51 120 143 177 216 261 228 232 196 193 178 194 197 200 206 211 220 230 230 230 230 232 233 232 236 240 242 246 238 235 231 233 234 237 237 239
209 165 224 221 240 296 179 182 140 132 234 173 160 273 301 252 187 201 202 183 194 193 212 218 224 229 230 229 236 242 234 242 247 241 245 248 238 236 235 236 235 236 237 237
179 215 253 323 351 26 196 188 137 116 79 184 143 258 340 34 182 202 209 204 200 199 228 226 226 229 232 231 239 246 244 247 248 243 241 244 240 241 240 241 240 238 240 241
158 142 180 221 213 165 169 172 142 130 124 173 213 252 281 240 195 191 199 212 204 194 186 199 207 216 225 236 245 245 246 250 246 246 241 247 247 247 243 248 248 251 244 241
107 212 179 237 207 200 177 166 167 161 174 148 218 206 231 223 202 225 206 195 181 175 184 187 187 196 211 229 243 253 253 251 255 251 253 249 254 253 247 248 250 253 255 249
352 255 173 246 228 201 191 173 182 166 133 178 152 252 220 203 225 184 207 196 175 170 171 175 173 180 207 228 239 245 249 251 251 249 248 252 252 254 242 243 239 241 238 239
354 51 71 253 206 110 330 195 186 179 180 152 166 223 183 169 195 193 197 190 175 179 176 182 180 192 199 218 225 234 240 244 247 246 248 252 254 253 248 244 244 230 242 228
193 80 120 218 160 197 231 276 216 189 172 205 154 172 205 208 208 197 205 185 184 183 190 190 191 187 184 176 194 225 249 251 248 247 245 245 250 248 245 247 251 239 229 241
182 139 162 188 193 278 276 212 162 170 235 194 181 188 211 232 166 182 197 196 193 195 195 190 180 184 172 167 152 122 108 118 190 257 250 244 243 239 245 252 251 233 240 235
98 101 143 160 176 200 233 317 352 86 256 282 191 166 161 150 170 210 202 202 201 197 187 185 185 189 182 166 153 138 116 95 86 78 70 80 210 227 232 240 248 242 238 238
120 17 174 181 209 285 278 289 297 142 227 319 320 292 163 173 203 212 203 199 203 196 191 191 198 195 187 180 173 168 154 139 122 82 29 41 67 89 101 210 235 203 229 250
191 162 199 107 143 239 351 309 182 176 22 347 336 323 308 224 209 209 208 197 201 198 192 194 191 188 186 185 189 193 192 191 195 201 297 329 133 130 101 94 188 233 238 218
236 193 207 189 218 239 335 25 1 16 33 15 347 330 306 283 229 198 192 196 200 198 193 191 189 186 185 185 192 202 201 211 221 231 276 250 222 208 175 119 118 167 202 235
314 179 218 17 282 261 305 294 281 310 352 7 5 344 316 257 221 193 192 190 194 193 189 185 185 188 188 191 195 197 207 215 232 256 277 237 214 200 197 197 210 202 193 203
220 165 240 284 274 287 303 307 322 326 309 341 5 353 332 255 217 198 189 189 190 188 184 184 187 187 192 192 191 198 205 216 229 244 253 208 182 160 146 142 140 153 164 177
191 202 187 230 252 220 278 305 319 323 317 308 336 346 325 227 208 195 189 188 185 181 182 183 186 187 184 187 194 204 214 228 248 195 185 189 175 162 140 133 138 125 151 177
Height
1501 1509 1516 1510 1509 1510 1513 1519 1519 1514 1511 1515 1516 1516 1516 1517 1518 1516 1515 1518 1521 1520 1522 1525 1528 1533 1537 1540 1542 1544 1547 1549 1552 1555 1557 1561 1564 1566 1567 1569 1570 1571 1572 1575
1505 1512 1500 1501 1502 1507 1509 1516 1517 1514 1509 1511 1508 1512 1509 1512 1513 1510 1510 1512 1516 1519 1522 1524 1526 1529 1533 1536 1539 1543 1547 1549 1551 1554 1557 1560 1563 1566 1567 1569 1570 1570 1573 1574
1509 1497 1493 1500 1501 1506 1508 1512 1513 1511 1508 1509 1508 1511 1507 1507 1507 1507 1508 1509 1510 1514 1517 1520 1521 1525 1529 1533 1535 1539 1544 1548 1550 1553 1557 1559 1560 1563 1565 1566 1568 1570 1571 1573
1501 1489 1492 1498 1500 1502 1514 1493 1497 1503 1514 1526 1509 1534 1510 1502 1505 1501 1501 1504 1504 1508 1513 1515 1516 1521 1524 1528 1533 1536 1541 1545 1549 1552 1554 1556 1558 1560 1562 1564 1567 1569 1570 1572
1495 1486 1490 1497 1491 1491 1496 1484 1490 1498 1509 1517 1521 1530 1505 1503 1503 1497 1495 1500 1501 1504 1509 1511 1512 1516 1520 1525 1528 1533 1538 1542 1546 1549 1553 1555 1556 1559 1561 1563 1565 1566 1568 1570
1485 1479 1481 1482 1477 1481 1476 1488 1500 1508 1518 1534 1511 1520 1507 1500 1486 1485 1488 1493 1496 1499 1504 1508 1511 1516 1519 1522 1526 1530 1533 1538 1542 1545 1549 1551 1553 1556 1558 1560 1562 1564 1566 1567
1486 1480 1474 1473 1479 1478 1485 1502 1532 1534 1539 1536 1507 1517 1496 1471 1474 1469 1471 1478 1486 1493 1500 1503 1507 1511 1514 1518 1522 1526 1529 1534 1537 1540 1543 1546 1549 1552 1555 1557 1558 1561 1562 1563
1501 1498 1472 1466 1472 1480 1485 1495 1528 1535 1536 1523 1508 1515 1486 1464 1463 1465 1467 1471 1480 1486 1493 1497 1500 1504 1508 1512 1516 1522 1525 1529 1533 1536 1539 1542 1545 1548 1551 1553 1556 1557 1559 1561
1499 1491 1464 1462 1462 1466 1484 1497 1489 1520 1527 1529 1514 1494 1469 1458 1463 1465 1469 1470 1475 1481 1488 1491 1496 1499 1503 1506 1510 1517 1520 1524 1528 1532 1535 1538 1541 1543 1545 1548 1551 1554 1557 1558
1474 1489 1465 1458 1459 1462 1468 1475 1502 1517 1529 1531 1522 1508 1495 1466 1463 1467 1470 1471 1474 1479 1483 1487 1491 1493 1498 1502 1507 1513 1517 1520 1523 1527 1531 1534 1536 1537 1540 1544 1545 1549 1553 1556
1470 1480 1468 1460 1465 1471 1476 1483 1491 1499 1514 1525 1531 1514 1467 1461 1458 1461 1464 1468 1470 1474 1479 1482 1486 1490 1495 1498 1503 1507 1512 1516 1519 1522 1526 1528 1530 1533 1535 1538 1540 1544 1548 1551
1457 1472 1484 1472 1452 1455 1457 1468 1479 1504 1503 1511 1514 1501 1456 1455 1456 1458 1461 1465 1470 1472 1476 1479 1482 1487 1491 1495 1498 1502 1507 1510 1513 1517 1520 1522 1525 1527 1529 1531 1535 1539 1542 1546
1454 1473 1488 1480 1466 1455 1459 1462 1467 1483 1492 1504 1510 1496 1455 1458 1458 1458 1460 1463 1469 1472 1473 1476 1480 1483 1487 1492 1495 1497 1500 1503 1507 1510 1514 1517 1519 1521 1523 1526 1531 1535 1538 1541
1444 1464 1467 1472 1466 1458 1461 1458 1462 1469 1495 1496 1496 1476 1462 1457 1458 1458 1459 1461 1466 1469 1472 1476 1479 1481 1485 1487 1490 1492 1494 1496 1500 1504 1508 1509 1511 1515 1520 1525 1527 1532 1532 1534
1447 1458 1458 1452 1448 1449 1448 1455 1459 1463 1468 1476 1471 1472 1458 1453 1451 1454 1457 1462 1464 1468 1473 1477 1481 1483 1484 1486 1487 1488 1489 1491 1494 1497 1500 1502 1505 1509 1515 1516 1511 1526 1529 1527
1448 1455 1452 1451 1445 1446 1447 1449 1452 1454 1460 1460 1460 1463 1448 1447 1453 1453 1456 1458 1462 1466 1474 1480 1482 1483 1484 1486 1486 1486 1487 1488 1490 1491 1493 1496 1498 1502 1507 1512 1513 1517 1516 1519
1455 1457 1461 1462 1447 1450 1463 1449 1450 1451 1451 1454 1467 1452 1447 1446 1449 1447 1451 1456 1460 1466 1473 1478 1478 1480 1482 1484 1484 1484 1485 1485 1486 1488 1489 1490 1492 1494 1498 1503 1506 1509 1511 1511
1454 1459 1464 1466 1458 1476 1445 1433 1431 1436 1440 1441 1441 1440 1441 1440 1435 1441 1447 1450 1456 1464 1472 1474 1478 1479 1479 1482 1482 1482 1483 1483 1484 1485 1485 1486 1488 1489 1493 1497 1498 1500 1505 1506
1445 1455 1464 1465 1470 1456 1436 1432 1434 1438 1441 1434 1434 1435 1435 1437 1443 1443 1444 1448 1454 1460 1467 1472 1477 1478 1480 1483 1483 1483 1483 1484 1484 1483 1483 1485 1485 1486 1489 1491 1492 1495 1499 1501
1444 1446 1456 1470 1463 1469 1444 1432 1428 1428 1450 1431 1428 1430 1432 1436 1451 1436 1439 1446 1454 1459 1464 1468 1473 1477 1480 1481 1482 1484 1484 1485 1485 1485 1486 1486 1486 1487 1488 1490 1491 1492 1494 1497
1452 1453 1458 1465 1461 1452 1437 1432 1429 1450 1454 1434 1433 1433 1430 1434 1428 1423 1434 1445 1451 1455 1460 1466 1470 1473 1477 1479 1481 1482 1484 1486 1487 1488 1489 1489 1489 1489 1489 1489 1490 1491 1492 1493
1450 1455 1459 1462 1458 1458 1438 1432 1435 1438 1436 1437 1433 1433 1438 1431 1426 1426 1432 1439 1445 1451 1458 1464 1468 1473 1476 1479 1481 1483 1485 1487 1489 1490 1490 1489 1490 1490 1490 1490 1490 1491 1491 1492
1454 1452 1453 1456 1453 1440 1439 1438 1437 1435 1434 1433 1431 1428 1426 1424 1426 1424 1428 1434 1441 1447 1454 1461 1467 1472 1476 1479 1481 1483 1485 1487 1489 1490 1489 1489 1489 1490 1491 1491 1491 1491 1491 1492
1449 1448 1451 1449 1445 1441 1437 1438 1438 1437 1435 1430 1426 1425 1423 1420 1423 1420 1424 1430 1440 1447 1454 1459 1465 1470 1474 1477 1479 1482 1484 1486 1488 1489 1488 1488 1487 1488 1489 1490 1490 1491 1491 1491
1451 1448 1448 1447 1440 1438 1436 1436 1435 1434 1433 1428 1424 1423 1423 1420 1420 1419 1422 1428 1436 1444 1452 1458 1463 1468 1473 1475 1478 1480 1483 1484 1486 1488 1487 1487 1487 1488 1489 1489 1489 1490 1490 1491
1444 1445 1450 1447 1437 1438 1436 1435 1434 1431 1430 1428 1426 1424 1424 1423 1422 1421 1422 1426 1434 1443 1451 1457 1463 1468 1471 1474 1477 1478 1480 1482 1484 1486 1488 1487 1487 1488 1489 1490 1490 1490 1491 1491